[[[{"header":{"parameterUnit":"kt","parameterCategory":2,"dx":1,"dy":1,"la1":30.253999710083008,"la2":30.299108505249023,"lo1":-89.0895004272461,"lo2":-89.04439544677734,"nx":28,"ny":28,"refTime":"2022-09-21T09:00:00:Z","depth":0,"parameterNumber":1,"parameterNumberName":"U-component_of_WINDS"},"data":[0.7399,0.754,0.7569,0.7745,0.7802,0.7928,0.7983,0.8058,0.8125,0.8281,0.8377,0.8424,0.8505,0.8629,0.8736,0.8756,0.88,0.8827,0.8846,0.8691,0.8672,0.8654,0.8622,0.8836,0.8836,0.9001,0.9003,0.9004,0.7281,0.7337,0.7438,0.7557,0.7644,0.7635,0.7729,0.7804,0.7919,0.8003,0.8099,0.8241,0.8358,0.8432,0.8551,0.8621,0.8625,0.8651,0.8647,0.8661,0.8497,0.8462,0.8645,0.8645,0.8645,0.8645,0.8645,0.8645,0.7074,0.7158,0.7246,0.7357,0.7425,0.7505,0.7591,0.7645,0.7747,0.7872,0.789,0.8022,0.8114,0.8274,0.8336,0.8441,0.8419,0.8458,0.8469,0.8478,0.8484,0.8243,0.8463,0.8462,0.8462,0.8462,0.8461,0,0.6932,0.695,0.705,0.7159,0.7242,0.733,0.7416,0.7471,0.7524,0.7607,0.7729,0.7806,0.7958,0.8079,0.8198,0.8255,0.8259,0.8262,0.829,0.8284,0.8262,0.8277,0.8009,0.8257,0.8255,0.8254,0.8253,0.8252,0.6727,0.6821,0.6929,0.6995,0.705,0.7157,0.7227,0.7267,0.7341,0.7455,0.7529,0.765,0.7749,0.7944,0.8011,0.8126,0.813,0.8221,0.8148,0.8136,0.8134,0.8128,0.8139,0.8235,0.8237,0.8239,0.8241,0,0.6609,0.6657,0.6814,0.6912,0.694,0.7038,0.7124,0.7211,0.7255,0.7383,0.7415,0.7486,0.7608,0.766,0.7811,0.7836,0.8003,0.8002,0.797,0.7973,0.8061,0.8053,0.8336,0.8376,0.8153,0.8155,0.8156,0,0.6455,0.6578,0.6643,0.6731,0.687,0.6907,0.7044,0.7096,0.7175,0.7276,0.7285,0.738,0.7433,0.7536,0.7572,0.7718,0.7746,0.7774,0.7783,0.7775,0.7772,0.7818,0.7809,0.7797,0.7795,0.7794,0.7793,0,0.6267,0.6446,0.6589,0.6639,0.6758,0.6825,0.6878,0.6968,0.7038,0.7138,0.7184,0.7298,0.7361,0.745,0.7496,0.7444,0.7675,0.7613,0.7704,0.7703,0.7755,0.7751,0.7986,0.7791,0.7791,0.779,0.779,0,0.615,0.6246,0.6447,0.6546,0.6592,0.6688,0.6801,0.6894,0.6989,0.7017,0.7097,0.7111,0.7241,0.7176,0.7357,0.7277,0.734,0.7378,0.7386,0.7403,0.733,0.7458,0.7673,0.7699,0.7415,0.7412,0.741,0,0.5922,0.6138,0.617,0.6361,0.6468,0.6471,0.6578,0.6661,0.6708,0.6807,0.6859,0.6974,0.6937,0.698,0.7063,0.7123,0.7227,0.711,0.7259,0.7263,0.7234,0.7432,0.7452,0.7619,0.737,0.7374,0.7377,0,0.5753,0.5894,0.5926,0.5984,0.6099,0.6189,0.6312,0.6432,0.6496,0.6589,0.6695,0.6857,0.6836,0.6908,0.6933,0.7016,0.7158,0.6984,0.6987,0.7015,0.7355,0.7373,0.74,0.7156,0.7161,0.7165,0.7346,0,0.5568,0.5682,0.5769,0.5897,0.5974,0.6097,0.6151,0.6225,0.6239,0.6286,0.6443,0.6528,0.6654,0.67,0.6716,0.6888,0.6869,0.6846,0.679,0.6918,0.698,0.7005,0.6693,0.6692,0.669,0.669,0,0,0.534,0.5504,0.5537,0.5657,0.5724,0.5726,0.5853,0.592,0.6056,0.6104,0.6071,0.6313,0.6385,0.657,0.6614,0.6665,0.6703,0.6656,0.6856,0.6874,0.6892,0.6956,0.6981,0.6688,0.6687,0.6687,0.6686,0,0.5284,0.535,0.5473,0.5543,0.5647,0.569,0.5719,0.5824,0.5861,0.6013,0.6017,0.6118,0.6311,0.6386,0.645,0.6633,0.6633,0.6668,0.6748,0.6843,0.6862,0.688,0.6947,0.6971,0.6684,0.6684,0.6684,0,0.5128,0.5203,0.5267,0.5419,0.5489,0.56,0.5551,0.5671,0.5754,0.5756,0.5908,0.5964,0.607,0.6238,0.6315,0.629,0.6566,0.6489,0.6498,0.6509,0.6604,0.6627,0.6648,0.6371,0.637,0.6369,0,0,0.5072,0.5178,0.5273,0.5412,0.5454,0.552,0.5585,0.5606,0.5699,0.5736,0.5808,0.5901,0.6013,0.6087,0.6196,0.6372,0.6399,0.6448,0.6463,0.6475,0.6492,0.659,0.6613,0.6364,0.6364,0.6363,0,0,0.5048,0.5161,0.5158,0.5325,0.5412,0.5517,0.5601,0.5601,0.5704,0.5697,0.5742,0.5769,0.5927,0.5982,0.5908,0.6178,0.612,0.6139,0.6136,0.6155,0.617,0.6154,0.5875,0,0,0,0,0,0.5018,0.5147,0.5143,0.5179,0.5373,0.5518,0.5544,0.5582,0.5539,0.5605,0.5665,0.5659,0.5951,0.5886,0.5923,0.6007,0.6299,0.631,0.6321,0.6358,0.6378,0.6394,0,0,0,0,0,0,0.5033,0.5076,0.5139,0.5249,0.5293,0.5514,0.5451,0.5465,0.5533,0.553,0.5648,0.5663,0.5701,0.587,0.5903,0.5982,0.5864,0.6303,0.6313,0.6322,0.6365,0.6381,0.6395,0,0,0,0,0,0.5044,0.5079,0.5381,0.5248,0.5286,0.5367,0.5446,0.5458,0.5512,0.5606,0.562,0.5534,0.5702,0.5732,0.589,0.5966,0.5841,0.5853,0.6309,0.6317,0.6324,0.6373,0,0,0,0,0,0,0.5053,0.5092,0.5389,0.5403,0.5201,0.5355,0.538,0.5451,0.5584,0.56,0.5493,0.5489,0.5704,0.5727,0.5751,0.5958,0.5823,0.5835,0.5843,0.6315,0.6321,0.6327,0,0,0,0,0,0,0.5073,0.5103,0.5396,0.5336,0.5343,0.5345,0.5367,0.5507,0.5586,0.5465,0.5465,0.549,0.567,0.5725,0.5743,0.596,0.5809,0.5821,0.5829,0.5834,0.632,0.6325,0,0,0,0,0,0,0.5087,0.5112,0.5333,0.5338,0.5343,0.5495,0.547,0.5668,0.553,0.5459,0.5519,0.5514,0.5668,0.5687,0.5737,0.5947,0.5957,0.5809,0.5817,0.5823,0.5827,0,0,0,0,0,0,0,0.5098,0.4916,0.531,0.534,0.5344,0.5525,0.5528,0.5532,0.5529,0.5524,0.552,0.5516,0.5742,0.5755,0.5768,0.5936,0,0,0.5808,0.5814,0,0,0,0,0,0,0,0,0.4906,0.4913,0.5311,0.5314,0.5316,0.5525,0.5528,0.5531,0.5528,0.5524,0.5521,0.5518,0.5745,0.5756,0.5766,0,0,0,0,0,0,0,0,0,0,0,0,0,0,0,0.5311,0.5313,0,0.5526,0.5528,0.5531,0.5527,0.5524,0.5522,0.5519,0.5748,0.5757,0.5766,0,0,0,0,0,0,0,0,0,0,0,0,0,0,0,0,0,0,0,0,0,0,0,0,0,0,0,0,0,0,0,0,0,0,0,0,0,0,0,0,0,0,0,0,0,0,0,0,0,0,0,0,0,0,0,0,0,0,0,0,0,0,0,0,0,0,0,0,0]}],[{"header":{"parameterUnit":"kt","parameterCategory":2,"dx":1,"dy":1,"la1":30.253999710083008,"la2":30.299108505249023,"lo1":-89.0895004272461,"lo2":-89.04439544677734,"nx":28,"ny":28,"refTime":"2022-09-21T09:00:00:Z","depth":0,"parameterNumber":2,"parameterNumberName":"V-component_of_WINDS"},"data":[1.1989,1.2037,1.2022,1.2068,1.2062,1.209,1.2095,1.2099,1.2098,1.2128,1.2141,1.2131,1.2123,1.2134,1.2146,1.2141,1.2145,1.217,1.2158,1.2063,1.2048,1.2034,1.202,1.2173,1.2173,1.2257,1.2257,1.2258,1.1907,1.1902,1.1925,1.1936,1.1953,1.1918,1.1924,1.194,1.1966,1.1968,1.1983,1.2008,1.2026,1.201,1.2024,1.2042,1.2025,1.2046,1.2041,1.2039,1.1938,1.1924,1.2058,1.2058,1.2058,1.2058,1.2058,1.2058,1.1753,1.1784,1.1783,1.1807,1.181,1.1817,1.1844,1.1832,1.1853,1.1869,1.185,1.1879,1.1877,1.189,1.189,1.191,1.1885,1.1902,1.1906,1.1909,1.1912,1.1779,1.1913,1.1913,1.1912,1.1912,1.1912,0,1.1634,1.1619,1.1643,1.166,1.1678,1.1691,1.1701,1.1717,1.1684,1.1704,1.173,1.1743,1.1767,1.1788,1.1801,1.1798,1.1763,1.1761,1.1772,1.1777,1.1778,1.1771,1.1599,1.1757,1.1755,1.1754,1.1754,1.1753,1.1471,1.1513,1.1509,1.1526,1.1529,1.156,1.1575,1.1544,1.1561,1.1567,1.1596,1.162,1.1637,1.1682,1.1667,1.1686,1.1668,1.1728,1.1671,1.1673,1.166,1.1655,1.1655,1.1738,1.174,1.1742,1.1743,0,1.1378,1.1358,1.142,1.1414,1.1413,1.1458,1.145,1.1482,1.1469,1.1509,1.1517,1.1496,1.1524,1.1501,1.1529,1.1515,1.1577,1.1564,1.1574,1.1568,1.1614,1.1607,1.1783,1.1801,1.165,1.1652,1.1653,0,1.1228,1.1287,1.1253,1.1291,1.1351,1.1321,1.1381,1.1377,1.138,1.1412,1.1372,1.1402,1.137,1.1396,1.1377,1.1425,1.1433,1.1423,1.1416,1.1423,1.1424,1.1428,1.1418,1.1409,1.1409,1.1408,1.1407,0,1.1081,1.1137,1.1198,1.1207,1.1209,1.1238,1.124,1.1244,1.1261,1.1279,1.1288,1.1313,1.1324,1.1341,1.1316,1.1277,1.1378,1.1319,1.1367,1.1367,1.1388,1.1386,1.1551,1.1406,1.1406,1.1405,1.1405,0,1.0957,1.0979,1.1076,1.1073,1.1089,1.1132,1.1152,1.1185,1.1193,1.1184,1.1199,1.1169,1.1217,1.1158,1.1219,1.1174,1.1187,1.1184,1.1187,1.1186,1.112,1.1208,1.1372,1.1385,1.1187,1.1185,1.1184,0,1.0789,1.0884,1.0859,1.0952,1.0992,1.0942,1.0988,1.1,1.0992,1.1023,1.1015,1.1052,1.1005,1.1013,1.1047,1.1039,1.1098,1.1031,1.1066,1.1068,1.1058,1.1211,1.1238,1.134,1.1161,1.1163,1.1165,0,1.0657,1.0664,1.0683,1.069,1.0704,1.0741,1.0796,1.0827,1.0847,1.0869,1.091,1.0967,1.093,1.0947,1.0928,1.0964,1.1057,1.0921,1.0921,1.094,1.1151,1.1174,1.1192,1.1035,1.1037,1.104,1.1147,0,1.0458,1.0508,1.0561,1.0588,1.0614,1.0676,1.0656,1.0685,1.0662,1.0655,1.072,1.0729,1.0762,1.0781,1.0762,1.0856,1.0836,1.08,1.0739,1.0842,1.0876,1.0891,1.0688,1.0687,1.0685,1.0684,0,0,1.0298,1.037,1.0346,1.0402,1.0421,1.0372,1.0438,1.0452,1.0483,1.0496,1.0462,1.0543,1.0554,1.0634,1.0665,1.0683,1.0695,1.0663,1.0795,1.0807,1.0819,1.0856,1.0871,1.0681,1.068,1.068,1.0679,0,1.0221,1.0237,1.0306,1.0319,1.0339,1.033,1.0346,1.0358,1.0357,1.0426,1.0383,1.0421,1.0493,1.0504,1.052,1.0653,1.0617,1.0666,1.0739,1.078,1.0794,1.0807,1.0847,1.0862,1.0676,1.0676,1.0676,0,1.0082,1.0092,1.0126,1.0175,1.0189,1.0236,1.0166,1.0223,1.0255,1.0202,1.0271,1.0274,1.0293,1.0376,1.0414,1.0384,1.0546,1.0497,1.0506,1.0509,1.0547,1.0565,1.058,1.0372,1.0371,1.037,0,0,1.0018,1.0068,1.0071,1.0158,1.0169,1.0158,1.0184,1.0165,1.0185,1.0193,1.0197,1.0216,1.0255,1.0283,1.032,1.0417,1.0415,1.046,1.0474,1.0486,1.0495,1.0536,1.0554,1.0367,1.0367,1.0366,0,0,0.9988,0.9995,0.997,1.007,1.009,1.0099,1.0151,1.0121,1.0154,1.0145,1.0118,1.0122,1.0201,1.0208,1.0159,1.0296,1.0237,1.0249,1.0289,1.0307,1.0321,1.0316,1.0089,0,0,0,0,0,0.9901,0.9993,0.9971,0.9986,1.0052,1.0111,1.0119,1.0099,1.0054,1.0095,1.0093,1.0057,1.0173,1.0129,1.0143,1.0198,1.0318,1.0327,1.0335,1.0409,1.0428,1.0444,0,0,0,0,0,0,0.9907,0.9925,0.9968,0.9982,0.9997,1.0108,1.0028,1.0025,1.005,1.0041,1.0059,1.0058,1.0041,1.0121,1.0134,1.0186,1.0085,1.0321,1.0329,1.0335,1.0416,1.0431,1.0445,0,0,0,0,0,0.9911,0.9925,1.0037,0.9981,0.9993,0.9988,1.0024,1.0021,1.004,1.004,1.0038,1.0022,1.0044,1.0053,1.0128,1.018,1.0076,1.0081,1.0326,1.0332,1.0337,1.0423,0,0,0,0,0,0,0.9914,0.9922,1.0039,1.0042,0.9946,0.9981,0.9986,1.0018,1.0036,1.0035,1.0001,0.9995,1.0046,1.0053,1.0061,1.0179,1.0068,1.0073,1.0076,1.033,1.0335,1.0339,0,0,0,0,0,0,0.9914,0.9925,1.0041,0.9998,0.9996,0.9975,0.9979,1.0043,1.0037,0.9997,0.9992,0.9998,1.0035,1.0054,1.0059,1.0159,1.0063,1.0067,1.0071,1.0073,1.0334,1.0338,0,0,0,0,0,0,0.9918,0.9928,0.9997,0.9995,0.9993,1.0024,1.003,1.0099,1.0001,0.9997,0.9992,0.9987,1.0036,1.0041,1.0059,1.0156,1.0158,1.0063,1.0066,1.0068,1.007,0,0,0,0,0,0,0,0.9922,0.9865,1.0022,0.9993,0.9991,1.0069,1.007,1.0071,1.0,0.9996,0.9993,0.9989,1.0036,1.0041,1.0046,1.0154,0,0,1.0062,1.0065,0,0,0,0,0,0,0,0,0.986,0.9864,1.0022,1.0022,1.0023,1.0069,1.007,1.0071,0.9999,0.9996,0.9993,0.999,1.0037,1.0041,1.0045,0,0,0,0,0,0,0,0,0,0,0,0,0,0,0,1.0022,1.0022,0,1.007,1.007,1.0071,0.9999,0.9996,0.9994,0.9992,1.0038,1.0042,1.0045,0,0,0,0,0,0,0,0,0,0,0,0,0,0,0,0,0,0,0,0,0,0,0,0,0,0,0,0,0,0,0,0,0,0,0,0,0,0,0,0,0,0,0,0,0,0,0,0,0,0,0,0,0,0,0,0,0,0,0,0,0,0,0,0,0,0,0,0,0]}]]]